Regional Weather Roundup
Issued by NWS

Home | Current Version | Previous Version | Text Only | Print | Product List | Glossary Off
Versions: 1 2 3 4 5 6 7 8 9 10 11 12 13 14 15 16 17 18 19 20 21 22 23 24 25 26 27 28 29 30 31 32 33 34 35 36 37 38 39 40 41 42 43 44 45 46 47 48 49 50

000
ASUS43 KLOT 250207
RWRIL

ILLINOIS REGIONAL WEATHER ROUNDUP
NATIONAL WEATHER SERVICE CHICAGO/ROMEOVILLE IL
900 PM CDT FRI MAR 24 2017

NOTE: "FAIR" INDICATES FEW OR NO CLOUDS BELOW 12,000 FEET WITH NO
SIGNIFICANT WEATHER AND/OR OBSTRUCTIONS TO VISIBILITY.

* THESE STATIONS ARE NOT UNDER NWS QUALITY CONTROL. THEY ALSO MAY NOT
  REPORT WEATHER SUCH AS PRECIPITATION OR FOG.

ILZ001-002-007-009-015-016-024-250300-
NORTHWEST ILLINOIS

CITY           SKY/WX    TMP DP  RH WIND       PRES   REMARKS
MOLINE         CLOUDY    57  54  89 NE6       29.97F
STERLING*      CLOUDY    56  54  93 N3        30.03R
SAVANNA*       LGT RAIN  54  53  98 NE14      30.02F
$$

ILZ003-004-008-010-011-017-018-250300-
NORTH CENTRAL ILLINOIS

CITY           SKY/WX    TMP DP  RH WIND       PRES   REMARKS
ROCKFORD       LGT RAIN  46  40  79 NE12      30.09R
FREEPORT*      RAIN      46  44  93 NE8       30.09R
ROCHELLE*      LGT RAIN  46  41  83 NE10      30.06R
DE KALB*       CLOUDY    46  39  76 NE12      30.05R
PERU*          LGT RAIN  60  50  69 W16G22    30.01R
$$

ILZ005-006-012>014-019>023-250300-
NORTHEAST ILLINOIS

CITY           SKY/WX    TMP DP  RH WIND       PRES   REMARKS
CHICAGO-OHARE  CLOUDY    43  36  76 NE15      30.06R
CHICAGO-MIDWAY LGT RAIN  44  40  85 N12G23    30.06R FOG
AURORA         LGT RAIN  48  39  71 NE14G23   30.02R
LANSING*       CLOUDY    42  40  91 NE7       30.04F
JOLIET*        CLOUDY    47  45  91 NE8       30.03R FOG
WAUKEGAN       MOCLDY    39  36  89 N12G20    30.05R WCI  32
DUPAGE AIRPORT CLOUDY    45  38  76 NE16      30.03R
KANKAKEE*      CLOUDY    66  55  65 S14       30.00R
WHEELING       MOCLDY    40  37  89 NE14G22   30.06R
MORRIS*        CLOUDY    48  45  88 NE8G21    30.00R
ROMEOVILLE*    CLOUDY    44  44  97 E15       30.03R
NORTHERLY ISL    N/A     39  36  89 MISG        N/A
$$

LMZ740>746-250300-
SOUTHERN LAKE MICHIGAN

STATION/POSITION SKY/WX   TEMP    WIND        PRES    VSBY  WAVE
                          AIR SEA DIR/SP/G                  HT/PER
                          (F)     (DEG/KT/KT) (MB)    (MI)  (FT/S)
HARRISON CRIB                     350/ 16/ 17   N/A
BURNHAM HARBOR                    340/ 11/ 16   N/A
CALUMET HARBOR                    360/  9/ 13 1016.9S
BURNS HARBOR               40     340/  6/ 11 1018.6R
MICHIGAN CITY                     350/  4/  5   N/A
$$

ILZ025>027-034>036-040-047-049-050-058-095>099-250300-
WEST-CENTRAL ILLINOIS

CITY           SKY/WX    TMP DP  RH WIND       PRES   REMARKS
QUINCY         CLOUDY    55  55 100 E6        29.96F FOG
GALESBURG*     LGT RAIN  55  54  98 N5          N/A
MACOMB*        LGT RAIN  56  55  97 W6        30.02R
JACKSONVILLE*  CLOUDY    58  52  80 NE3       29.98R
PITTSFIELD*    CLOUDY    59  55  85 N5        29.98R
$$

ILZ028>032-037-038-041>044-048-051>054-059>061-250300-
CENTRAL ILLINOIS

CITY           SKY/WX    TMP DP  RH WIND       PRES   REMARKS
PONTIAC        CLOUDY    68  57  68 W9        30.00R
BLOOMINGTON    CLOUDY    66  56  70 SW12      30.01R
DECATUR        CLOUDY    67  55  65 S14       30.01R
PEORIA         CLOUDY    62  53  72 N3        29.98F
LACON*         CLOUDY    61  51  70 N8        30.00S
LINCOLN*       CLOUDY    66  52  60 CALM      30.00S
SPRINGFIELD    CLOUDY    66  51  58 N7        30.00R
TAYLORVILLE    CLOUDY    66  57  72 S13       30.00S
$$

ILZ033-039-045-046-055>057-062-063-250300-
EAST-CENTRAL ILLINOIS

CITY           SKY/WX    TMP DP  RH WIND       PRES   REMARKS
CHAMPAIGN      MOCLDY    66  54  65 S12       30.02R
RANTOUL*       CLOUDY    68  57  69 S15       30.02R
MATTOON        MOCLDY    66  56  70 S10       30.04R
PARIS*         CLOUDY    65  56  71 S13       30.06S
$$

ILZ079-100>102-250300-
SOUTHWEST ILLINOIS

CITY           SKY/WX    TMP DP  RH WIND       PRES   REMARKS
ALTON          PTCLDY    64  54  68 SE9       29.98R
BELLEVILLE     CLOUDY    68  59  73 SE12      29.98S
CAHOKIA*       CLOUDY    69  54  58 SE13      29.96F
SPARTA*        MOCLDY    68  56  67 SE10      30.01S
$$

ILZ064>066-069>071-074>076-080>082-084>086-088>090-092>094-250300-
SOUTH-CENTRAL ILLINOIS

CITY           SKY/WX    TMP DP  RH WIND       PRES   REMARKS
CARBONDALE     PTCLDY    66  56  70 SE8       30.02F
CAIRO*         CLOUDY    64  56  76 E9        30.03F
EFFINGHAM*     CLOUDY    68  57  68 SE8       30.06S
MARION         PTCLDY    68  55  64 SE8       30.04F
MT. VERNON     MOCLDY    66  56  70 SE6       30.04F
CENTRALIA*     CLOUDY    68  58  71 SE10      30.02F
SALEM*         PTCLDY    68  56  65 SE6       30.03S
METROPOLIS*    PTCLDY    67  55  66 CALM      30.07R
$$

ILZ067-068-072-073-078-083-087-091-250300-
SOUTHEAST ILLINOIS

CITY           SKY/WX    TMP DP  RH WIND       PRES   REMARKS
LAWRENCEVILLE  MOCLDY    63  54  72 S9        30.09R
FLORA*         CLOUDY    63  56  79 SE9       30.06S
FAIRFIELD*     CLOUDY    63  55  76 SE3       30.05S
HARRISBURG*    CLOUDY    62  56  81 S9        30.07S
ROBINSON*      CLOUDY    64  54  68 S8        30.09R
CARMI*         CLOUDY    59  55  84 SE6       30.07S
$$

ABBREVIATIONS USED IN REMARKS
   TC - TEMPERATURE IN CELSIUS
  WCI - WIND CHILL INDEX
   HX - HEAT INDEX
  VSB - VISIBILITY
$$





USA.gov is the U.S. government's official web portal to all federal, state and local government web resources and services.